Temperature
20 20 20 19 19 19 19 19 19 19 19 19 19 19 19 19 19 18 18 18 18 18 18 18 18 18 19 19 19 19 19 19 19 18 18 18 17 17 17 17 17 17 18
21 20 20 19 19 19 19 19 19 19 19 19 19 19 19 19 18 18 18 18 18 18 18 18 18 18 18 18 18 19 19 19 18 18 18 18 18 17 17 17 17 17 17
20 19 20 19 19 19 19 19 19 19 19 19 19 19 19 19 18 18 18 18 18 18 18 18 18 18 18 18 18 19 18 18 18 18 18 18 17 18 17 17 17 17 17
20 19 19 19 19 19 19 19 19 19 19 20 19 19 19 19 18 18 18 18 18 18 18 18 18 18 18 18 18 18 18 18 18 18 18 18 17 18 18 17 17 17 17
20 19 19 20 19 19 19 19 19 19 19 19 19 19 19 19 18 18 18 18 18 18 18 18 18 18 18 18 18 18 18 18 18 18 18 18 17 18 18 17 17 17 17
20 19 20 20 19 19 19 19 19 19 19 19 19 19 19 18 18 18 18 18 18 18 18 18 18 18 18 18 18 18 18 18 18 18 18 17 17 18 17 17 17 17 17
20 19 19 19 19 19 19 19 19 19 19 19 19 19 18 18 18 18 18 18 17 17 17 17 17 17 18 18 18 18 18 18 17 18 18 17 17 18 17 17 17 17 17
20 19 19 19 19 19 18 19 19 19 19 19 18 18 18 18 18 18 17 17 17 17 17 17 17 17 18 18 18 18 18 18 18 18 18 18 18 18 17 17 17 17 17
20 19 19 19 19 18 18 18 18 18 18 18 18 18 18 18 18 18 17 17 17 17 17 17 17 17 18 18 18 18 18 18 18 18 18 18 18 18 17 17 17 17 17
20 19 18 18 18 18 18 18 18 18 18 18 18 18 18 18 18 17 17 17 17 17 17 17 17 17 18 18 18 18 18 18 19 18 18 18 18 18 17 17 17 17 17
19 19 18 18 18 18 17 18 18 18 18 18 18 18 18 17 17 17 16 17 17 17 17 17 17 17 18 18 18 18 18 18 19 18 18 18 18 18 17 17 17 17 17
19 19 19 18 18 18 18 17 17 17 18 18 17 17 17 17 17 17 16 17 17 17 17 17 17 17 17 17 17 18 18 18 19 18 17 17 17 17 17 17 17 17 17
20 19 19 18 18 18 18 18 17 17 17 17 17 17 17 17 17 16 16 16 16 17 16 16 17 17 17 17 17 18 18 18 18 18 17 17 17 17 17 17 17 17 17
21 20 19 19 18 18 18 18 17 17 17 17 17 17 17 17 17 16 16 16 16 16 16 16 16 16 16 17 17 17 18 18 18 18 17 17 17 17 17 17 16 16 16
21 20 20 19 18 18 18 17 17 17 17 17 17 17 17 17 17 16 16 16 16 16 16 16 16 16 16 16 17 17 17 17 17 17 16 17 17 16 16 16 16 16 16
21 20 20 19 19 19 19 18 17 17 17 17 17 17 17 17 16 16 16 16 16 16 16 16 16 16 16 16 16 16 16 16 16 16 16 16 16 16 16 16 15 15 15
21 21 20 20 20 20 19 19 18 17 17 17 17 16 16 16 16 16 16 16 16 16 16 16 15 16 16 16 16 16 16 16 15 15 15 15 15 15 15 15 15 15 14
22 21 21 20 20 21 20 19 18 18 17 17 17 16 16 16 16 16 16 16 16 16 16 16 16 16 16 15 15 15 15 15 15 15 14 14 14 14 14 14 14 14 14
22 21 20 20 20 20 20 19 18 18 17 17 16 16 16 16 16 16 16 16 16 16 16 16 16 16 15 15 14 14 14 14 14 13 14 13 13 13 12 12 13 13 12
21 21 20 20 20 19 19 19 18 17 17 16 16 16 16 16 16 16 16 16 16 15 15 15 15 15 15 14 13 13 13 13 13 12 12 12 11 11 11 10 10 10 10
21 20 20 19 19 19 18 18 17 17 16 16 16 16 16 15 15 15 15 15 15 15 15 14 14 14 14 13 13 12 12 12 11 11 11 10 10 9 9 9 9 9 9
21 20 20 19 19 19 18 17 17 16 16 16 16 15 15 15 14 14 14 14 14 14 14 14 13 13 13 12 12 11 11 11 10 10 9 9 9 9 9 9 8 8 8
21 20 19 19 18 18 17 17 16 16 16 15 15 14 14 14 13 13 13 13 13 13 13 13 12 12 12 11 11 11 11 13 12 10 9 8 8 8 8 8 8 8 7
21 20 19 18 18 17 17 17 16 16 16 15 15 14 14 13 13 12 12 12 12 12 12 12 11 11 11 10 10 10 9 9 10 12 10 9 8 7 8 7 8 7 7
21 20 19 18 17 17 17 16 16 16 16 15 15 14 13 12 12 12 12 12 11 11 11 11 11 10 10 9 9 9 8 8 8 9 10 9 9 9 8 8 7 7 6
18 18 18 17 17 16 16 16 15 15 15 15 14 13 12 12 12 11 11 11 10 10 10 10 10 9 8 8 8 8 8 9 9 9 9 9 9 9 8 8 7 6 6
Wind_Speed
15 18 19 15 12 11 13 17 19 20 20 20 19 18 17 16 15 14 13 13 13 14 14 14 13 13 13 12 11 11 10 9 9 9 10 9 9 10 11 10 7 11 12
18 20 20 16 14 12 13 15 18 19 20 20 19 18 17 16 15 14 13 13 13 13 13 13 12 12 11 10 10 9 8 8 7 7 8 10 9 9 9 6 5 12 10
18 20 21 17 15 14 13 14 17 19 20 20 19 18 17 16 15 14 13 12 12 12 12 12 11 11 10 9 8 7 6 6 5 5 7 7 10 8 8 7 9 11 9
18 19 20 19 17 16 15 14 16 18 19 19 18 17 16 15 14 13 12 11 11 10 10 10 10 9 8 7 6 5 4 3 3 6 7 6 9 10 8 8 9 9 8
17 18 20 20 18 17 16 16 16 17 17 17 17 16 15 14 13 12 11 10 9 9 9 9 9 8 7 6 5 4 2 1 4 9 2 5 7 10 8 8 9 9 8
17 18 20 20 18 18 17 16 16 16 16 16 16 15 14 12 11 10 9 8 8 7 7 7 8 7 6 5 4 3 2 2 8 6 4 4 8 9 7 8 9 9 9
16 17 20 19 18 18 17 17 16 15 15 15 14 13 12 10 9 8 7 7 7 6 6 7 7 6 5 4 4 4 3 4 8 4 6 4 8 8 6 6 7 8 8
15 16 20 19 18 18 18 17 16 15 15 14 13 12 11 10 9 7 7 6 6 5 6 7 7 6 4 3 4 4 4 7 5 4 4 6 10 5 3 3 3 5 6
15 15 18 20 19 18 17 17 16 15 14 14 13 12 11 10 9 8 7 6 5 5 6 6 6 5 4 3 3 4 4 6 7 5 4 6 9 5 4 4 3 1 1
15 14 15 18 19 19 18 17 16 15 14 13 13 12 11 10 9 8 9 7 5 5 5 6 6 5 4 3 3 2 2 7 4 5 5 9 8 4 4 4 4 4 3
14 14 14 16 16 17 17 18 16 14 13 13 13 12 12 12 12 11 9 8 6 5 5 5 5 4 3 5 3 1 5 4 4 2 5 10 6 4 4 3 3 3 2
17 16 16 15 15 16 14 15 15 15 14 14 13 14 13 10 8 8 12 8 6 5 6 6 5 6 7 5 6 6 4 2 2 3 6 8 5 3 3 3 2 2 1
17 16 16 15 15 14 12 12 12 12 12 13 12 12 10 8 8 7 8 10 9 9 8 8 8 5 3 1 1 3 2 1 1 2 7 7 4 3 2 2 1 1 1
17 18 16 16 14 14 12 11 10 9 9 10 12 12 10 7 7 6 6 6 6 6 4 5 4 4 3 3 2 2 3 1 2 3 8 9 6 4 2 1 0 1 2
17 17 17 16 15 13 11 9 10 9 9 10 10 11 10 8 6 6 5 4 5 4 5 5 4 4 4 4 3 2 3 3 2 2 6 12 10 8 5 3 2 1 2
17 17 16 16 15 13 12 10 8 9 8 9 9 10 10 8 6 6 5 4 4 3 2 2 3 3 3 2 3 3 2 2 4 2 2 8 14 12 10 8 6 4 3
17 17 16 16 16 15 13 12 9 8 8 7 7 8 9 8 7 5 4 4 3 3 4 3 4 3 3 3 3 4 4 4 4 4 2 2 5 13 13 12 11 10 9
17 17 17 15 16 16 13 11 8 7 7 6 6 6 8 8 6 5 4 4 6 6 6 5 4 4 4 3 3 3 3 3 3 2 1 1 1 1 9 12 12 11 11
17 16 17 17 17 16 14 10 8 6 5 4 4 4 5 6 5 5 5 6 7 7 6 5 5 4 4 3 2 2 2 2 2 1 1 1 2 1 1 7 9 9 9
16 16 17 17 16 15 13 9 7 6 4 2 2 2 3 3 5 7 7 8 8 6 5 5 5 4 3 2 1 1 1 2 2 1 2 1 1 1 1 2 2 3 5
17 17 17 17 16 14 11 11 9 6 5 4 4 6 6 6 7 8 8 8 6 5 5 5 4 4 3 2 2 2 2 2 2 3 3 3 2 2 3 4 6 7 5
18 18 17 17 16 15 12 9 7 7 6 5 5 5 6 7 7 7 9 7 6 5 5 4 4 3 3 1 2 3 4 5 5 5 4 4 4 5 6 7 7 8 10
17 18 16 16 16 15 13 10 10 8 5 4 5 3 5 7 7 6 8 8 6 5 5 5 4 4 3 2 0 3 4 6 3 6 6 6 6 6 9 8 11 11 12
13 14 15 15 14 14 14 13 13 9 7 6 5 5 6 8 8 7 7 8 6 5 6 5 4 4 3 3 3 0 2 4 5 4 6 7 8 9 10 10 12 12 13
6 9 11 13 13 14 13 14 13 10 8 8 9 10 8 7 9 9 9 9 8 7 7 7 6 4 3 2 2 2 1 2 4 6 8 7 8 9 9 9 10 12 14
8 10 12 14 13 13 12 11 12 13 12 12 12 11 9 7 7 9 10 9 9 9 8 7 6 6 4 3 1 1 3 4 6 7 9 10 11 10 10 9 10 12 12
Wind_Direction
163 154 155 167 161 147 138 139 144 149 150 149 148 145 144 142 137 131 124 118 115 113 111 109 107 105 103 103 104 107 110 109 108 110 112 113 115 118 120 127 144 113 109
157 153 154 162 158 148 140 138 139 142 145 147 146 145 145 143 138 132 126 121 118 117 116 113 110 107 105 104 105 109 113 116 118 121 131 127 117 121 123 120 55 106 123
153 151 157 158 157 152 146 140 137 138 141 144 144 144 145 143 139 135 131 126 124 123 120 116 111 107 105 104 106 109 115 123 129 157 209 151 121 130 133 121 103 118 130
153 154 160 155 158 155 152 147 142 141 142 143 143 145 145 144 142 140 138 134 131 126 121 115 111 108 107 107 106 106 112 130 162 212 214 111 121 130 145 139 134 136 140
155 158 151 156 159 158 157 155 150 147 146 145 146 147 147 147 146 143 142 138 134 127 121 116 112 111 109 105 96 86 76 134 212 239 155 105 103 129 152 154 154 153 154
158 159 153 160 162 160 160 161 158 154 152 151 150 150 150 149 146 145 144 142 140 135 127 119 113 109 105 95 78 55 23 278 239 204 125 133 116 131 157 164 170 171 170
160 160 156 162 163 163 164 164 163 160 157 155 153 151 149 146 146 149 151 154 155 149 135 120 112 106 97 74 50 29 359 296 264 142 137 136 99 120 149 166 175 179 181
161 162 154 162 167 168 169 169 168 165 162 159 155 152 150 151 154 159 164 167 166 155 135 121 114 107 94 61 35 16 350 300 239 127 146 112 94 106 119 142 168 180 189
166 165 162 170 173 174 174 173 171 169 167 163 160 159 159 162 165 169 170 169 163 148 134 123 116 108 92 61 34 14 345 302 266 135 128 94 94 89 74 61 63 90 168
171 171 170 175 177 180 181 178 174 172 171 168 168 170 169 170 175 178 186 166 162 149 138 126 116 109 106 87 53 19 303 266 231 152 134 100 95 86 70 58 53 50 50
178 177 177 179 181 186 185 175 180 179 179 177 180 179 183 192 187 187 183 148 165 158 144 126 116 121 167 150 121 184 240 230 158 130 93 88 96 94 88 83 74 63 55
183 186 183 186 184 189 186 176 189 192 187 198 192 187 199 200 197 194 136 152 170 165 158 137 140 183 224 171 152 197 189 190 168 149 95 88 98 103 99 107 109 98 88
185 189 190 189 189 190 187 185 191 196 188 200 200 195 203 197 199 200 175 173 186 191 192 161 193 194 177 111 157 140 100 147 128 129 88 84 94 101 98 110 144 195 226
190 190 193 188 191 197 194 191 193 199 191 198 193 202 197 204 207 197 197 184 187 199 194 198 192 160 155 155 146 124 127 110 82 75 75 71 72 73 64 50 307 262 262
195 193 193 192 189 194 200 201 198 204 200 200 197 200 207 205 208 201 198 191 203 194 190 198 195 159 168 160 140 113 89 71 53 42 95 76 68 66 61 46 24 340 300
198 196 193 194 191 192 197 204 204 207 207 211 204 205 208 215 206 205 195 188 194 201 196 188 160 166 172 128 109 78 45 65 64 8 70 94 77 68 64 60 53 41 13
198 196 195 194 193 193 198 203 205 209 208 216 210 209 210 218 205 199 192 172 149 125 115 120 114 117 112 106 77 57 48 31 42 30 9 347 97 80 69 65 62 58 50
197 195 196 196 193 192 195 197 200 200 204 215 215 211 210 218 205 190 163 138 123 119 118 111 108 101 85 71 56 33 33 36 33 14 341 349 343 113 84 71 65 60 54
200 195 195 199 194 190 189 188 188 180 192 202 211 222 210 206 188 158 132 123 124 117 113 111 104 104 97 80 66 33 2 342 318 359 23 55 73 342 110 102 86 68 54
201 198 197 196 194 187 181 176 173 169 163 124 71 51 78 114 131 130 125 127 125 118 112 107 108 101 101 96 44 1 316 300 282 256 236 177 176 224 299 323 261 108 89
202 199 197 196 188 184 180 175 170 160 123 89 73 78 93 105 123 133 132 131 128 122 122 132 128 128 128 152 185 221 233 248 255 243 250 251 211 266 278 292 294 306 280
206 202 197 195 186 183 177 169 160 129 111 108 92 87 100 114 129 144 143 141 136 132 141 155 158 161 136 171 240 247 244 220 221 225 230 234 258 266 272 271 287 279 285
208 203 198 191 183 177 160 141 127 122 113 110 116 116 118 131 144 151 148 140 143 151 153 158 158 154 144 138 288 265 271 278 218 201 227 242 251 272 278 281 273 277 277
209 199 192 183 173 163 154 149 148 145 138 150 149 145 138 130 126 125 123 121 121 121 125 130 117 126 146 153 144 345 332 335 294 272 224 230 242 259 272 280 283 282 277
183 181 172 156 149 149 147 147 146 146 144 144 140 136 124 108 101 101 104 109 113 110 106 104 107 113 142 155 158 170 192 231 260 281 290 288 273 265 267 270 278 285 286
100 115 121 124 125 131 137 142 144 145 144 142 140 132 119 106 101 105 112 113 112 110 110 110 113 105 91 91 83 276 281 291 295 298 293 289 290 289 289 287 282 280 285
Height
1535 1538 1539 1541 1544 1547 1550 1552 1554 1556 1559 1560 1562 1563 1564 1566 1567 1568 1570 1571 1572 1572 1573 1574 1575 1575 1576 1576 1576 1576 1576 1576 1576 1576 1575 1575 1575 1576 1576 1576 1577 1579 1578
1535 1537 1539 1542 1545 1548 1551 1553 1556 1557 1560 1561 1563 1564 1566 1567 1568 1569 1571 1572 1573 1574 1574 1575 1576 1576 1576 1577 1577 1577 1577 1577 1578 1578 1578 1578 1577 1577 1578 1578 1579 1580 1579
1534 1537 1539 1543 1546 1549 1552 1554 1557 1559 1560 1562 1563 1565 1566 1568 1569 1570 1572 1573 1574 1575 1575 1576 1576 1577 1577 1578 1578 1578 1579 1579 1579 1580 1580 1582 1580 1579 1579 1580 1580 1580 1581
1535 1538 1540 1543 1546 1550 1553 1555 1558 1560 1562 1563 1565 1566 1567 1569 1570 1571 1572 1573 1574 1575 1576 1576 1576 1577 1578 1578 1579 1579 1580 1580 1581 1581 1583 1584 1583 1581 1581 1581 1581 1582 1582
1536 1539 1541 1544 1547 1550 1553 1556 1558 1561 1562 1564 1566 1567 1569 1570 1571 1572 1573 1574 1575 1576 1576 1576 1577 1577 1578 1579 1579 1580 1580 1581 1582 1582 1585 1585 1584 1582 1582 1582 1582 1583 1584
1537 1540 1541 1544 1548 1551 1554 1556 1559 1561 1563 1565 1566 1568 1570 1571 1572 1573 1574 1575 1576 1576 1577 1577 1577 1578 1578 1579 1580 1580 1581 1582 1582 1585 1585 1585 1585 1583 1583 1583 1583 1584 1585
1538 1541 1541 1545 1548 1552 1554 1557 1560 1562 1564 1566 1567 1569 1570 1571 1573 1574 1575 1576 1576 1577 1577 1577 1577 1578 1579 1579 1580 1581 1582 1583 1584 1586 1586 1586 1585 1584 1584 1584 1584 1585 1585
1538 1542 1542 1545 1548 1552 1555 1558 1560 1562 1564 1566 1567 1569 1570 1572 1573 1574 1575 1576 1577 1577 1577 1577 1577 1578 1579 1580 1580 1581 1582 1583 1585 1586 1587 1587 1585 1585 1584 1585 1585 1585 1586
1539 1542 1543 1545 1548 1551 1554 1557 1560 1562 1564 1566 1567 1569 1570 1571 1573 1574 1575 1576 1576 1576 1577 1577 1577 1578 1579 1580 1580 1581 1582 1584 1586 1587 1587 1587 1585 1585 1585 1585 1585 1586 1586
1539 1541 1543 1546 1548 1551 1553 1556 1559 1561 1563 1565 1567 1568 1569 1571 1572 1573 1574 1575 1575 1576 1576 1577 1577 1578 1579 1580 1580 1581 1583 1584 1586 1587 1588 1587 1586 1586 1586 1586 1586 1586 1586
1538 1540 1542 1546 1548 1551 1554 1555 1558 1560 1562 1564 1565 1567 1568 1570 1572 1572 1573 1574 1574 1575 1576 1576 1577 1578 1579 1580 1580 1581 1583 1586 1587 1587 1587 1586 1586 1586 1586 1586 1586 1586 1586
1535 1538 1541 1545 1547 1551 1554 1555 1557 1559 1561 1563 1565 1566 1568 1570 1571 1573 1572 1573 1573 1574 1575 1576 1577 1578 1580 1582 1582 1582 1585 1585 1587 1587 1587 1586 1586 1586 1586 1586 1586 1586 1586
1534 1536 1540 1543 1546 1550 1553 1555 1557 1560 1561 1562 1565 1565 1567 1569 1570 1571 1572 1572 1573 1575 1577 1576 1578 1580 1582 1581 1583 1584 1584 1586 1586 1587 1586 1585 1586 1586 1586 1586 1586 1586 1585
1533 1534 1538 1540 1543 1547 1551 1553 1555 1558 1559 1561 1562 1563 1566 1567 1569 1570 1571 1572 1574 1575 1576 1578 1579 1579 1580 1581 1583 1583 1584 1585 1586 1586 1584 1584 1585 1585 1584 1584 1584 1584 1583
1530 1533 1535 1538 1540 1543 1547 1550 1553 1555 1558 1560 1561 1562 1564 1566 1567 1569 1570 1570 1573 1574 1575 1577 1578 1578 1579 1581 1582 1582 1583 1583 1584 1584 1583 1582 1582 1582 1582 1582 1581 1581 1580
1527 1530 1533 1535 1537 1540 1543 1547 1550 1553 1555 1559 1559 1561 1562 1565 1566 1567 1568 1569 1571 1573 1575 1576 1577 1577 1579 1580 1580 1580 1581 1581 1580 1581 1582 1580 1579 1579 1578 1578 1577 1577 1576
1523 1527 1529 1532 1535 1537 1541 1544 1547 1550 1553 1555 1557 1558 1559 1562 1563 1565 1566 1568 1569 1570 1571 1573 1575 1576 1577 1577 1578 1578 1578 1578 1577 1577 1578 1578 1576 1574 1574 1573 1573 1572 1571
1520 1523 1525 1529 1532 1534 1538 1541 1545 1547 1549 1552 1554 1556 1557 1559 1561 1563 1564 1565 1567 1569 1570 1572 1573 1574 1574 1575 1575 1575 1575 1575 1574 1574 1574 1573 1573 1571 1569 1567 1567 1566 1565
1516 1519 1521 1525 1528 1531 1535 1538 1541 1544 1546 1549 1552 1554 1555 1557 1558 1560 1562 1564 1565 1567 1568 1570 1571 1571 1571 1571 1572 1572 1572 1572 1571 1570 1569 1568 1566 1566 1565 1562 1561 1560 1559
1512 1514 1517 1521 1525 1528 1532 1535 1538 1541 1544 1546 1549 1551 1553 1554 1556 1558 1559 1561 1563 1565 1566 1567 1568 1568 1568 1568 1568 1568 1569 1568 1567 1566 1565 1564 1562 1561 1561 1559 1559 1556 1554
1507 1509 1512 1516 1520 1524 1528 1531 1534 1537 1540 1543 1544 1547 1549 1551 1553 1554 1555 1558 1560 1561 1562 1563 1564 1564 1564 1565 1566 1565 1564 1563 1562 1561 1562 1562 1560 1558 1557 1555 1555 1554 1552
1501 1504 1507 1511 1516 1519 1524 1527 1531 1533 1535 1537 1540 1542 1544 1545 1547 1550 1551 1553 1555 1558 1559 1560 1561 1561 1561 1561 1562 1563 1563 1562 1557 1559 1558 1558 1557 1556 1555 1553 1551 1549 1548
1496 1499 1503 1507 1511 1515 1519 1522 1525 1528 1531 1533 1535 1538 1540 1541 1543 1546 1546 1548 1551 1554 1556 1557 1558 1558 1558 1558 1559 1561 1562 1560 1558 1557 1555 1555 1553 1553 1552 1550 1548 1546 1543
1492 1496 1500 1503 1507 1511 1515 1518 1520 1523 1526 1530 1532 1535 1537 1538 1540 1542 1544 1545 1548 1550 1552 1554 1554 1555 1556 1557 1557 1557 1558 1557 1558 1556 1554 1552 1551 1549 1547 1545 1544 1542 1539
1488 1492 1496 1500 1504 1508 1511 1514 1517 1520 1523 1525 1528 1530 1534 1536 1538 1540 1542 1544 1546 1548 1550 1552 1553 1553 1554 1556 1557 1557 1556 1555 1555 1554 1552 1551 1548 1546 1544 1541 1539 1536 1534
1486 1489 1493 1497 1501 1505 1509 1512 1515 1518 1520 1522 1524 1527 1530 1534 1536 1538 1541 1543 1545 1547 1549 1551 1551 1552 1553 1553 1554 1555 1555 1555 1553 1552 1549 1546 1544 1542 1540 1537 1534 1531 1528